Location: Hermaringen
(48.5952°N, 10.2585°E)
Time: 10:54:11
(UTC+00:00)

A-11 Canister half - Pass Details

Date: 24 February 2026
Orbit: 1513 x 1687 km, 47.2° (Epoch: 11 March)

Event Time Altitude Azimuth Distance (km) Brightness Sun altitude
Rises 18:08:18 0° 220° (SW) 4,922 12.3 -12.9°
Reaches altitude 10° 18:11:36 10° 215° (SW) 3,942 11.6 -13.4°
Maximum altitude 18:21:07 48° 145° (SE) 2,112 9.5 -15.0°
Enters shadow 18:27:56 20° 83° (E) 3,187 10.0 -16.1°
